Regional Weather Roundup
Issued by NWS Kansas City/Pleasant Hill, MO

Home | Current Version | Previous Version | Graphics & Text | Print | Product List | Glossary Off
Versions: 1 2 3 4 5 6 7 8 9 10 11 12 13 14 15 16 17 18 19 20 21 22 23 24 25 26 27 28 29 30 31 32 33 34 35 36 37 38 39 40 41 42 43 44 45 46 47 48 49 50

000
ASUS43 KEAX 270810
RWREAX

WEATHER ROUNDUP FOR EASTERN KANSAS AND NORTHWEST MISSOURI
NATIONAL WEATHER SERVICE KANSAS CITY/PLEASANT HILL MO
200 AM CST TUE JAN 27 2015

KSZ040-057-103>105-MOZ028-029-037-043-270900-
...KANSAS CITY METROPOLITAN AREA...

CITY           SKY/WX    TMP DP  RH WIND       PRES   REMARKS
K.C. INTL      CLEAR     39  31  72 N8        30.06R WCI  33
K.C. DOWNTOWN  CLEAR     37  31  78 CALM      30.06R
LEES SUMMIT    CLEAR     43  32  65 N10       30.05R
OLATHE - IXD   FAIR      40  30  67 NW7       30.07R
OLATHE - OJC   CLEAR     41  31  67 NW6       30.05R
LAWRENCE       CLEAR     29  25  85 NW7       30.08R WCI  22

$$

MOZ001>008-011>017-020>025-030>033-038>040-044>046-053-054-270900-
...NORTHERN AND CENTRAL MISSOURI...

CITY           SKY/WX    TMP DP  RH WIND       PRES   REMARKS
ST. JOSEPH     CLEAR     32  29  88 CALM      30.08R
MOSBY            N/A     43  32  65 NW6       30.05R
WARRENSBURG    CLEAR     37  32  81 W6        30.04R WCI  33
WHITEMAN AFB   CLEAR     40  32  73 N5        30.03R
CLINTON        CLEAR     41  32  70 NW8       30.04R
SEDALIA        CLEAR     39  32  76 NW9       30.03R WCI  33
WARSAW         NOT AVBL
MARSHALL       CLEAR     41  36  81 NW7       30.02S
CHILLICOTHE      N/A     38  32  79 NW3       30.05R
MOBERLY        CLEAR     37  32  81 NW8       30.00R WCI  31
KIRKSVILLE     CLOUDY    38  34  85 N9        30.01R WCI  31

$$

MOZ041-047>049-056>058-063>065-088>090-097-270900-
...EASTERN AND SOUTHERN MISSOURI...

CITY           SKY/WX    TMP DP  RH WIND       PRES   REMARKS
ST. LOUIS INTL PTCLDY    36  30  79 NW8       29.94R WCI  30
SPIRIT OF STL  CLEAR     37  32  82 NW6       29.95R WCI  32
COLUMBIA       CLEAR     39  33  79 NW7       29.99R WCI  34
JEFFERSON CITY CLEAR     35  32  88 CALM      30.00R
MEXICO         CLEAR     39  37  93 NW12      29.98R WCI  32
HANNIBAL       CLEAR     39  32  75 NW10      29.99R WCI  32
ROLLA          CLEAR     40  33  76 NW12      29.96R WCI  33
LEBANON        CLEAR     43  32  65 NW5       30.01R
OSAGE BEACH    CLEAR     45  32  61 NW6       30.01R
SPRINGFIELD    CLEAR     40  32  73 NW7       30.01R
BRANSON        CLEAR     46  32  57 NW7       30.02R
JOPLIN         CLEAR     39  33  79 CALM      30.06R
WEST PLAINS    CLEAR     44  32  62 NW10      29.97R

$$

IAZ060-094-KSZ022-034>040-054-083-096-NEZ052-066-093-270900-
...KANSAS...SOUTHEAST NEBRASKA AND IOWA...

CITY           SKY/WX    TMP DP  RH WIND       PRES   REMARKS
TOPEKA         CLEAR     33  27  78 CALM      30.09R
MANHATTAN      CLEAR     27  24  89 CALM      30.09R
EMPORIA        CLEAR     39  30  70 NW5       30.07S
CHANUTE        CLEAR     38  33  82 N6        30.07R WCI  33
WICHITA        CLEAR     40  31  70 NW6       30.08R
OMAHA          CLEAR     33  31  92 N6        30.07R WCI  28
LINCOLN        PTCLDY    28  23  81 CALM      30.09R
FALLS CITY     CLEAR     35  28  75 NW5       30.06S WCI  31
LAMONI         CLEAR     34  31  88 N7        30.02R WCI  28
DES MOINES     CLOUDY    37  31  78 NW8       30.04R WCI  31

$$




USA.gov is the U.S. government's official web portal to all federal, state and local government web resources and services.